owner,sensor,date,latitude,longitude,air_temperature,qcFlag 
DISL,ioos:station:DISL:DISL:1,2013-01-01T06:30:00Z,30.2513,-88.0778,14.83,1111122 
DISL,ioos:station:DISL:DISL:1,2013-01-01T07:00:00Z,30.2513,-88.0778,15.4,1111122 
DISL,ioos:station:DISL:DISL:1,2013-01-01T07:30:00Z,30.2513,-88.0778,16.6,1111122 
DISL,ioos:station:DISL:DISL:1,2013-01-01T08:00:00Z,30.2513,-88.0778,16.5,1111122 
DISL,ioos:station:DISL:DISL:1,2013-01-01T08:30:00Z,30.2513,-88.0778,16.26,1111122 
DISL,ioos:station:DISL:DISL:1,2013-01-01T09:00:00Z,30.2513,-88.0778,16.22,1111122 
DISL,ioos:station:DISL:DISL:1,2013-01-01T09:30:00Z,30.2513,-88.0778,16.34,1111122 
DISL,ioos:station:DISL:DISL:1,2013-01-01T10:00:00Z,30.2513,-88.0778,16.19,1111122 
DISL,ioos:station:DISL:DISL:1,2013-01-01T10:30:00Z,30.2513,-88.0778,16.02,1111122 
DISL,ioos:station:DISL:DISL:1,2013-01-01T11:00:00Z,30.2513,-88.0778,16.56,1111122 
DISL,ioos:station:DISL:DISL:1,2013-01-01T11:30:00Z,30.2513,-88.0778,16.22,1111122 
DISL,ioos:station:DISL:DISL:1,2013-01-01T12:00:00Z,30.2513,-88.0778,16.38,1111122 
DISL,ioos:station:DISL:DISL:1,2013-01-01T12:30:00Z,30.2513,-88.0778,16.2,1111122 
DISL,ioos:station:DISL:DISL:1,2013-01-01T13:00:00Z,30.2513,-88.0778,16.19,1111122 
DISL,ioos:station:DISL:DISL:1,2013-01-01T13:30:00Z,30.2513,-88.0778,16.41,1111122 
DISL,ioos:station:DISL:DISL:1,2013-01-01T14:00:00Z,30.2513,-88.0778,16.52,1111122 
DISL,ioos:station:DISL:DISL:1,2013-01-01T14:30:00Z,30.2513,-88.0778,17.1,1111122 
DISL,ioos:station:DISL:DISL:1,2013-01-01T15:00:00Z,30.2513,-88.0778,17.23,1111122 
DISL,ioos:station:DISL:DISL:1,2013-01-01T15:30:00Z,30.2513,-88.0778,18.66,1111122 
DISL,ioos:station:DISL:DISL:1,2013-01-01T16:00:00Z,30.2513,-88.0778,18.01,1111122 
DISL,ioos:station:DISL:DISL:1,2013-01-01T16:30:00Z,30.2513,-88.0778,17.48,1111122 
DISL,ioos:station:DISL:DISL:1,2013-01-01T17:00:00Z,30.2513,-88.0778,17.51,1111122 
DISL,ioos:station:DISL:DISL:1,2013-01-01T17:30:00Z,30.2513,-88.0778,18.07,1111122 
DISL,ioos:station:DISL:DISL:1,2013-01-01T18:00:00Z,30.2513,-88.0778,19.53,1111122 
DISL,ioos:station:DISL:DISL:1,2013-01-01T18:30:00Z,30.2513,-88.0778,19.34,1111122 
DISL,ioos:station:DISL:DISL:1,2013-01-01T19:00:00Z,30.2513,-88.0778,19.24,1111122 
DISL,ioos:station:DISL:DISL:1,2013-01-01T19:30:00Z,30.2513,-88.0778,18.68,1111122 
DISL,ioos:station:DISL:DISL:1,2013-01-01T20:00:00Z,30.2513,-88.0778,19.15,1111122 
DISL,ioos:station:DISL:DISL:1,2013-01-01T20:30:00Z,30.2513,-88.0778,18.84,1111122 
DISL,ioos:station:DISL:DISL:1,2013-01-01T21:00:00Z,30.2513,-88.0778,16.38,1111122 
DISL,ioos:station:DISL:DISL:1,2013-01-01T21:30:00Z,30.2513,-88.0778,17.76,1111122 
DISL,ioos:station:DISL:DISL:1,2013-01-01T22:00:00Z,30.2513,-88.0778,17.28,1111122 
DISL,ioos:station:DISL:DISL:1,2013-01-01T22:30:00Z,30.2513,-88.0778,16.99,1111122 
DISL,ioos:station:DISL:DISL:1,2013-01-01T23:00:00Z,30.2513,-88.0778,17.16,1111122 
DISL,ioos:station:DISL:DISL:1,2013-01-01T23:30:00Z,30.2513,-88.0778,17.83,1111122 
DISL,ioos:station:DISL:DISL:1,2013-01-02T00:00:00Z,30.2513,-88.0778,17.2,1111122 
DISL,ioos:station:DISL:DISL:1,2013-01-02T00:30:00Z,30.2513,-88.0778,16.76,1111122 
DISL,ioos:station:DISL:DISL:1,2013-01-02T01:00:00Z,30.2513,-88.0778,16.78,1111122 
DISL,ioos:station:DISL:DISL:1,2013-01-02T01:30:00Z,30.2513,-88.0778,16.85,1111122 
DISL,ioos:station:DISL:DISL:1,2013-01-02T02:00:00Z,30.2513,-88.0778,16.92,1111122 
DISL,ioos:station:DISL:DISL:1,2013-01-02T02:30:00Z,30.2513,-88.0778,17.75,1111122 
DISL,ioos:station:DISL:DISL:1,2013-01-02T03:00:00Z,30.2513,-88.0778,17.53,1111122 
DISL,ioos:station:DISL:DISL:1,2013-01-02T03:30:00Z,30.2513,-88.0778,17.66,1111122 
DISL,ioos:station:DISL:DISL:1,2013-01-02T04:00:00Z,30.2513,-88.0778,17.56,1111122 
DISL,ioos:station:DISL:DISL:1,2013-01-02T04:30:00Z,30.2513,-88.0778,15.98,1111122 
DISL,ioos:station:DISL:DISL:1,2013-01-02T05:00:00Z,30.2513,-88.0778,14.41,1111122 
DISL,ioos:station:DISL:DISL:1,2013-01-02T05:30:00Z,30.2513,-88.0778,13.73,1111122 
DISL,ioos:station:DISL:DISL:1,2013-01-02T06:00:00Z,30.2513,-88.0778,13.22,1111122 
DISL,ioos:station:DISL:DISL:1,2013-01-02T06:30:00Z,30.2513,-88.0778,12.98,1111122 
DISL,ioos:station:DISL:DISL:1,2013-01-02T07:00:00Z,30.2513,-88.0778,12.73,1111122 
DISL,ioos:station:DISL:DISL:1,2013-01-02T07:30:00Z,30.2513,-88.0778,12.66,1111122 
DISL,ioos:station:DISL:DISL:1,2013-01-02T08:00:00Z,30.2513,-88.0778,12.6,1111122 
DISL,ioos:station:DISL:DISL:1,2013-01-02T08:30:00Z,30.2513,-88.0778,12.47,1111122 
DISL,ioos:station:DISL:DISL:1,2013-01-02T09:00:00Z,30.2513,-88.0778,12.32,1111122 
DISL,ioos:station:DISL:DISL:1,2013-01-02T09:30:00Z,30.2513,-88.0778,12.14,1111122 
DISL,ioos:station:DISL:DISL:1,2013-01-02T10:00:00Z,30.2513,-88.0778,11.87,1111122 
DISL,ioos:station:DISL:DISL:1,2013-01-02T10:30:00Z,30.2513,-88.0778,11.55,1111122 
DISL,ioos:station:DISL:DISL:1,2013-01-02T11:00:00Z,30.2513,-88.0778,11.5,1111122 
DISL,ioos:station:DISL:DISL:1,2013-01-02T11:30:00Z,30.2513,-88.0778,11.39,1111122 
DISL,ioos:station:DISL:DISL:1,2013-01-02T12:00:00Z,30.2513,-88.0778,11.36,1111122 
DISL,ioos:station:DISL:DISL:1,2013-01-02T12:30:00Z,30.2513,-88.0778,11.14,1111122 
DISL,ioos:station:DISL:DISL:1,2013-01-02T13:00:00Z,30.2513,-88.0778,11.0,1111122 
DISL,ioos:station:DISL:DISL:1,2013-01-02T13:30:00Z,30.2513,-88.0778,10.96,1111122 
DISL,ioos:station:DISL:DISL:1,2013-01-02T14:00:00Z,30.2513,-88.0778,10.73,1111122 
DISL,ioos:station:DISL:DISL:1,2013-01-02T14:30:00Z,30.2513,-88.0778,10.48,1111122 
DISL,ioos:station:DISL:DISL:1,2013-01-02T15:00:00Z,30.2513,-88.0778,10.48,1111122 
DISL,ioos:station:DISL:DISL:1,2013-01-02T15:30:00Z,30.2513,-88.0778,10.39,1111122 
DISL,ioos:station:DISL:DISL:1,2013-01-02T16:00:00Z,30.2513,-88.0778,10.08,1111122 
DISL,ioos:station:DISL:DISL:1,2013-01-02T16:30:00Z,30.2513,-88.0778,9.97,1111122 
DISL,ioos:station:DISL:DISL:1,2013-01-02T17:00:00Z,30.2513,-88.0778,9.95,1111122 
DISL,ioos:station:DISL:DISL:1,2013-01-02T17:30:00Z,30.2513,-88.0778,10.07,1111122 
DISL,ioos:station:DISL:DISL:1,2013-01-02T18:00:00Z,30.2513,-88.0778,10.09,1111122 
DISL,ioos:station:DISL:DISL:1,2013-01-02T18:30:00Z,30.2513,-88.0778,10.01,1111122 
DISL,ioos:station:DISL:DISL:1,2013-01-02T19:00:00Z,30.2513,-88.0778,10.05,1111122 
DISL,ioos:station:DISL:DISL:1,2013-01-02T19:30:00Z,30.2513,-88.0778,10.17,1111122 
DISL,ioos:station:DISL:DISL:1,2013-01-02T20:00:00Z,30.2513,-88.0778,10.22,1111122 
DISL,ioos:station:DISL:DISL:1,2013-01-02T20:30:00Z,30.2513,-88.0778,10.31,1111122 
DISL,ioos:station:DISL:DISL:1,2013-01-02T21:00:00Z,30.2513,-88.0778,10.24,1111122 
DISL,ioos:station:DISL:DISL:1,2013-01-02T21:30:00Z,30.2513,-88.0778,10.28,1111122 
DISL,ioos:station:DISL:DISL:1,2013-01-02T22:00:00Z,30.2513,-88.0778,10.56,1111122 
DISL,ioos:station:DISL:DISL:1,2013-01-02T22:30:00Z,30.2513,-88.0778,10.75,1111122 
DISL,ioos:station:DISL:DISL:1,2013-01-02T23:00:00Z,30.2513,-88.0778,10.66,1111122 
DISL,ioos:station:DISL:DISL:1,2013-01-02T23:30:00Z,30.2513,-88.0778,10.72,1111122 
DISL,ioos:station:DISL:DISL:1,2013-01-03T00:00:00Z,30.2513,-88.0778,10.51,1111122 
DISL,ioos:station:DISL:DISL:1,2013-01-03T00:30:00Z,30.2513,-88.0778,10.1,1111122 
DISL,ioos:station:DISL:DISL:1,2013-01-03T01:00:00Z,30.2513,-88.0778,9.79,1111122 
DISL,ioos:station:DISL:DISL:1,2013-01-03T01:30:00Z,30.2513,-88.0778,9.72,1111122 
DISL,ioos:station:DISL:DISL:1,2013-01-03T02:00:00Z,30.2513,-88.0778,9.58,1111122 
DISL,ioos:station:DISL:DISL:1,2013-01-03T02:30:00Z,30.2513,-88.0778,9.29,1111122 
DISL,ioos:station:DISL:DISL:1,2013-01-03T03:00:00Z,30.2513,-88.0778,9.19,1111122 
DISL,ioos:station:DISL:DISL:1,2013-01-03T03:30:00Z,30.2513,-88.0778,9.02,1111122 
DISL,ioos:station:DISL:DISL:1,2013-01-03T04:00:00Z,30.2513,-88.0778,9.06,1111122 
DISL,ioos:station:DISL:DISL:1,2013-01-03T04:30:00Z,30.2513,-88.0778,9.14,1111122 
DISL,ioos:station:DISL:DISL:1,2013-01-03T05:00:00Z,30.2513,-88.0778,8.71,1111122 
DISL,ioos:station:DISL:DISL:1,2013-01-03T05:30:00Z,30.2513,-88.0778,8.41,1111122 
DISL,ioos:station:DISL:DISL:1,2013-01-03T06:00:00Z,30.2513,-88.0778,7.92,1111122 
DISL,ioos:station:DISL:DISL:1,2013-01-03T06:30:00Z,30.2513,-88.0778,7.65,1111122 
DISL,ioos:station:DISL:DISL:1,2013-01-03T07:00:00Z,30.2513,-88.0778,7.61,1111122 
DISL,ioos:station:DISL:DISL:1,2013-01-03T07:30:00Z,30.2513,-88.0778,7.47,1111122 
DISL,ioos:station:DISL:DISL:1,2013-01-03T08:00:00Z,30.2513,-88.0778,7.68,1111122 
DISL,ioos:station:DISL:DISL:1,2013-01-03T08:30:00Z,30.2513,-88.0778,7.52,1111122 
DISL,ioos:station:DISL:DISL:1,2013-01-03T09:00:00Z,30.2513,-88.0778,7.37,1111122 
DISL,ioos:station:DISL:DISL:1,2013-01-03T09:30:00Z,30.2513,-88.0778,7.38,1111122 
DISL,ioos:station:DISL:DISL:1,2013-01-03T10:00:00Z,30.2513,-88.0778,7.32,1111122 
DISL,ioos:station:DISL:DISL:1,2013-01-03T10:30:00Z,30.2513,-88.0778,7.09,1111122 
DISL,ioos:station:DISL:DISL:1,2013-01-03T11:00:00Z,30.2513,-88.0778,6.913,1111122 
DISL,ioos:station:DISL:DISL:1,2013-01-03T11:30:00Z,30.2513,-88.0778,7.13,1111122 
DISL,ioos:station:DISL:DISL:1,2013-01-03T12:00:00Z,30.2513,-88.0778,7.25,1111122 
DISL,ioos:station:DISL:DISL:1,2013-01-03T12:30:00Z,30.2513,-88.0778,6.844,1111122 
DISL,ioos:station:DISL:DISL:1,2013-01-03T13:00:00Z,30.2513,-88.0778,6.633,1111122 
DISL,ioos:station:DISL:DISL:1,2013-01-03T13:30:00Z,30.2513,-88.0778,6.394,1111122 
DISL,ioos:station:DISL:DISL:1,2013-01-03T14:00:00Z,30.2513,-88.0778,5.964,1111122 
DISL,ioos:station:DISL:DISL:1,2013-01-03T14:30:00Z,30.2513,-88.0778,6.62,1111122 
DISL,ioos:station:DISL:DISL:1,2013-01-03T15:00:00Z,30.2513,-88.0778,6.385,1111122 
DISL,ioos:station:DISL:DISL:1,2013-01-03T15:30:00Z,30.2513,-88.0778,6.423,1111122 
DISL,ioos:station:DISL:DISL:1,2013-01-03T16:00:00Z,30.2513,-88.0778,6.642,1111122 
DISL,ioos:station:DISL:DISL:1,2013-01-03T16:30:00Z,30.2513,-88.0778,6.527,1111122 
DISL,ioos:station:DISL:DISL:1,2013-01-03T17:00:00Z,30.2513,-88.0778,6.066,1111122 
DISL,ioos:station:DISL:DISL:1,2013-01-03T17:30:00Z,30.2513,-88.0778,6.152,1111122 
DISL,ioos:station:DISL:DISL:1,2013-01-03T18:00:00Z,30.2513,-88.0778,6.076,1111122 
DISL,ioos:station:DISL:DISL:1,2013-01-03T18:30:00Z,30.2513,-88.0778,6.229,1111122 
DISL,ioos:station:DISL:DISL:1,2013-01-03T19:00:00Z,30.2513,-88.0778,6.614,1111122 
DISL,ioos:station:DISL:DISL:1,2013-01-03T19:30:00Z,30.2513,-88.0778,6.835,1111122 
DISL,ioos:station:DISL:DISL:1,2013-01-03T20:00:00Z,30.2513,-88.0778,7.08,1111122 
DISL,ioos:station:DISL:DISL:1,2013-01-03T20:30:00Z,30.2513,-88.0778,7.47,1111122 
DISL,ioos:station:DISL:DISL:1,2013-01-03T21:00:00Z,30.2513,-88.0778,7.68,1111122 
DISL,ioos:station:DISL:DISL:1,2013-01-03T21:30:00Z,30.2513,-88.0778,7.96,1111122 
DISL,ioos:station:DISL:DISL:1,2013-01-03T22:00:00Z,30.2513,-88.0778,7.85,1111122 
DISL,ioos:station:DISL:DISL:1,2013-01-03T22:30:00Z,30.2513,-88.0778,8.23,1111122 
DISL,ioos:station:DISL:DISL:1,2013-01-03T23:00:00Z,30.2513,-88.0778,8.34,1111122 
DISL,ioos:station:DISL:DISL:1,2013-01-03T23:30:00Z,30.2513,-88.0778,8.57,1111122 
DISL,ioos:station:DISL:DISL:1,2013-01-04T00:00:00Z,30.2513,-88.0778,8.51,1111122 
DISL,ioos:station:DISL:DISL:1,2013-01-04T00:30:00Z,30.2513,-88.0778,8.56,1111122 
DISL,ioos:station:DISL:DISL:1,2013-01-04T01:00:00Z,30.2513,-88.0778,8.45,1111122 
DISL,ioos:station:DISL:DISL:1,2013-01-04T01:30:00Z,30.2513,-88.0778,8.08,1111122 
DISL,ioos:station:DISL:DISL:1,2013-01-04T02:00:00Z,30.2513,-88.0778,8.16,1111122 
DISL,ioos:station:DISL:DISL:1,2013-01-04T02:30:00Z,30.2513,-88.0778,8.47,1111122 
DISL,ioos:station:DISL:DISL:1,2013-01-04T03:00:00Z,30.2513,-88.0778,8.18,1111122 
DISL,ioos:station:DISL:DISL:1,2013-01-04T03:30:00Z,30.2513,-88.0778,8.1,1111122 
DISL,ioos:station:DISL:DISL:1,2013-01-04T04:00:00Z,30.2513,-88.0778,7.93,1111122 
DISL,ioos:station:DISL:DISL:1,2013-01-04T04:30:00Z,30.2513,-88.0778,7.65,1111122 
DISL,ioos:station:DISL:DISL:1,2013-01-04T05:00:00Z,30.2513,-88.0778,7.52,1111122 
DISL,ioos:station:DISL:DISL:1,2013-01-04T05:30:00Z,30.2513,-88.0778,7.58,1111122 
DISL,ioos:station:DISL:DISL:1,2013-01-04T06:00:00Z,30.2513,-88.0778,7.17,1111122 
DISL,ioos:station:DISL:DISL:1,2013-01-04T06:30:00Z,30.2513,-88.0778,7.2,1111122 
DISL,ioos:station:DISL:DISL:1,2013-01-04T07:00:00Z,30.2513,-88.0778,7.13,1111122 
DISL,ioos:station:DISL:DISL:1,2013-01-04T07:30:00Z,30.2513,-88.0778,7.1,1111122 
DISL,ioos:station:DISL:DISL:1,2013-01-04T08:00:00Z,30.2513,-88.0778,6.846,1111122 
DISL,ioos:station:DISL:DISL:1,2013-01-04T08:30:00Z,30.2513,-88.0778,6.806,1111122 
DISL,ioos:station:DISL:DISL:1,2013-01-04T09:00:00Z,30.2513,-88.0778,6.98,1111122 
DISL,ioos:station:DISL:DISL:1,2013-01-04T09:30:00Z,30.2513,-88.0778,6.73,1111122 
DISL,ioos:station:DISL:DISL:1,2013-01-04T10:00:00Z,30.2513,-88.0778,6.662,1111122 
DISL,ioos:station:DISL:DISL:1,2013-01-04T10:30:00Z,30.2513,-88.0778,6.537,1111122 
DISL,ioos:station:DISL:DISL:1,2013-01-04T11:00:00Z,30.2513,-88.0778,6.604,1111122 
DISL,ioos:station:DISL:DISL:1,2013-01-04T11:30:00Z,30.2513,-88.0778,6.413,1111122 
DISL,ioos:station:DISL:DISL:1,2013-01-04T12:00:00Z,30.2513,-88.0778,6.454,1111122 
DISL,ioos:station:DISL:DISL:1,2013-01-04T12:30:00Z,30.2513,-88.0778,6.408,1111122 
DISL,ioos:station:DISL:DISL:1,2013-01-04T13:00:00Z,30.2513,-88.0778,6.309,1111122 
DISL,ioos:station:DISL:DISL:1,2013-01-04T13:30:00Z,30.2513,-88.0778,6.052,1111122 
DISL,ioos:station:DISL:DISL:1,2013-01-04T14:00:00Z,30.2513,-88.0778,6.001,1111122 
DISL,ioos:station:DISL:DISL:1,2013-01-04T14:30:00Z,30.2513,-88.0778,5.945,1111122 
DISL,ioos:station:DISL:DISL:1,2013-01-04T15:00:00Z,30.2513,-88.0778,6.356,1111122 
DISL,ioos:station:DISL:DISL:1,2013-01-04T15:30:00Z,30.2513,-88.0778,6.307,1111122 
DISL,ioos:station:DISL:DISL:1,2013-01-04T16:00:00Z,30.2513,-88.0778,6.306,1111122 
DISL,ioos:station:DISL:DISL:1,2013-01-04T16:30:00Z,30.2513,-88.0778,6.509,1111122 
DISL,ioos:station:DISL:DISL:1,2013-01-04T17:00:00Z,30.2513,-88.0778,6.922,1111122 
DISL,ioos:station:DISL:DISL:1,2013-01-04T17:30:00Z,30.2513,-88.0778,7.31,1111122 
DISL,ioos:station:DISL:DISL:1,2013-01-04T18:00:00Z,30.2513,-88.0778,7.97,1111122 
DISL,ioos:station:DISL:DISL:1,2013-01-04T18:30:00Z,30.2513,-88.0778,8.68,1111122 
DISL,ioos:station:DISL:DISL:1,2013-01-04T19:00:00Z,30.2513,-88.0778,9.21,1111122 
DISL,ioos:station:DISL:DISL:1,2013-01-04T19:30:00Z,30.2513,-88.0778,9.54,1111122 
DISL,ioos:station:DISL:DISL:1,2013-01-04T20:00:00Z,30.2513,-88.0778,10.06,1111122 
DISL,ioos:station:DISL:DISL:1,2013-01-04T20:30:00Z,30.2513,-88.0778,10.45,1111122 
DISL,ioos:station:DISL:DISL:1,2013-01-04T21:00:00Z,30.2513,-88.0778,10.96,1111122 
DISL,ioos:station:DISL:DISL:1,2013-01-04T21:30:00Z,30.2513,-88.0778,10.96,1111122 
DISL,ioos:station:DISL:DISL:1,2013-01-04T22:00:00Z,30.2513,-88.0778,11.41,1111122 
DISL,ioos:station:DISL:DISL:1,2013-01-04T22:30:00Z,30.2513,-88.0778,11.53,1111122 
DISL,ioos:station:DISL:DISL:1,2013-01-04T23:00:00Z,30.2513,-88.0778,11.69,1111122 
DISL,ioos:station:DISL:DISL:1,2013-01-04T23:30:00Z,30.2513,-88.0778,11.62,1111122 
DISL,ioos:station:DISL:DISL:1,2013-01-05T00:00:00Z,30.2513,-88.0778,11.43,1111122 
DISL,ioos:station:DISL:DISL:1,2013-01-05T00:30:00Z,30.2513,-88.0778,11.3,1111122 
DISL,ioos:station:DISL:DISL:1,2013-01-05T01:00:00Z,30.2513,-88.0778,11.35,1111122 
DISL,ioos:station:DISL:DISL:1,2013-01-05T01:30:00Z,30.2513,-88.0778,11.34,1111122 
DISL,ioos:station:DISL:DISL:1,2013-01-05T02:00:00Z,30.2513,-88.0778,10.99,1111122 
DISL,ioos:station:DISL:DISL:1,2013-01-05T02:30:00Z,30.2513,-88.0778,10.75,1111122 
DISL,ioos:station:DISL:DISL:1,2013-01-05T03:00:00Z,30.2513,-88.0778,10.54,1111122 
DISL,ioos:station:DISL:DISL:1,2013-01-05T03:30:00Z,30.2513,-88.0778,10.29,1111122 
DISL,ioos:station:DISL:DISL:1,2013-01-05T04:00:00Z,30.2513,-88.0778,10.39,1111122 
DISL,ioos:station:DISL:DISL:1,2013-01-05T04:30:00Z,30.2513,-88.0778,10.41,1111122 
DISL,ioos:station:DISL:DISL:1,2013-01-05T05:00:00Z,30.2513,-88.0778,10.36,1111122 
DISL,ioos:station:DISL:DISL:1,2013-01-05T05:30:00Z,30.2513,-88.0778,10.3,1111122 
DISL,ioos:station:DISL:DISL:1,2013-01-05T06:00:00Z,30.2513,-88.0778,10.04,1111122 
DISL,ioos:station:DISL:DISL:1,2013-01-05T06:30:00Z,30.2513,-88.0778,10.01,1111122 
DISL,ioos:station:DISL:DISL:1,2013-01-05T07:00:00Z,30.2513,-88.0778,9.8,1111122 
DISL,ioos:station:DISL:DISL:1,2013-01-05T07:30:00Z,30.2513,-88.0778,9.67,1111122 
DISL,ioos:station:DISL:DISL:1,2013-01-05T08:00:00Z,30.2513,-88.0778,9.5,1111122 
DISL,ioos:station:DISL:DISL:1,2013-01-05T08:30:00Z,30.2513,-88.0778,9.63,1111122 
DISL,ioos:station:DISL:DISL:1,2013-01-05T09:00:00Z,30.2513,-88.0778,9.47,1111122 
DISL,ioos:station:DISL:DISL:1,2013-01-05T09:30:00Z,30.2513,-88.0778,9.29,1111122 
DISL,ioos:station:DISL:DISL:1,2013-01-05T10:00:00Z,30.2513,-88.0778,9.07,1111122 
DISL,ioos:station:DISL:DISL:1,2013-01-05T10:30:00Z,30.2513,-88.0778,9.25,1111122 
DISL,ioos:station:DISL:DISL:1,2013-01-05T11:00:00Z,30.2513,-88.0778,9.02,1111122 
DISL,ioos:station:DISL:DISL:1,2013-01-05T11:30:00Z,30.2513,-88.0778,8.78,1111122 
DISL,ioos:station:DISL:DISL:1,2013-01-05T12:00:00Z,30.2513,-88.0778,8.79,1111122 
DISL,ioos:station:DISL:DISL:1,2013-01-05T12:30:00Z,30.2513,-88.0778,8.86,1111122 
DISL,ioos:station:DISL:DISL:1,2013-01-05T13:00:00Z,30.2513,-88.0778,9.0,1111122 
DISL,ioos:station:DISL:DISL:1,2013-01-05T13:30:00Z,30.2513,-88.0778,8.94,1111122 
DISL,ioos:station:DISL:DISL:1,2013-01-05T14:00:00Z,30.2513,-88.0778,8.99,1111122 
DISL,ioos:station:DISL:DISL:1,2013-01-05T14:30:00Z,30.2513,-88.0778,8.87,1111122 
DISL,ioos:station:DISL:DISL:1,2013-01-05T15:00:00Z,30.2513,-88.0778,8.88,1111122 
DISL,ioos:station:DISL:DISL:1,2013-01-05T15:30:00Z,30.2513,-88.0778,9.06,1111122 
DISL,ioos:station:DISL:DISL:1,2013-01-05T16:00:00Z,30.2513,-88.0778,9.27,1111122 
DISL,ioos:station:DISL:DISL:1,2013-01-05T16:30:00Z,30.2513,-88.0778,9.5,1111122 
DISL,ioos:station:DISL:DISL:1,2013-01-05T17:00:00Z,30.2513,-88.0778,9.78,1111122 
DISL,ioos:station:DISL:DISL:1,2013-01-05T17:30:00Z,30.2513,-88.0778,9.73,1111122 
DISL,ioos:station:DISL:DISL:1,2013-01-05T18:00:00Z,30.2513,-88.0778,9.95,1111122 
DISL,ioos:station:DISL:DISL:1,2013-01-05T18:30:00Z,30.2513,-88.0778,10.27,1111122 
DISL,ioos:station:DISL:DISL:1,2013-01-05T19:00:00Z,30.2513,-88.0778,10.6,1111122 
DISL,ioos:station:DISL:DISL:1,2013-01-05T19:30:00Z,30.2513,-88.0778,10.61,1111122 
DISL,ioos:station:DISL:DISL:1,2013-01-05T20:00:00Z,30.2513,-88.0778,10.42,1111122 
DISL,ioos:station:DISL:DISL:1,2013-01-05T20:30:00Z,30.2513,-88.0778,10.49,1111122 
DISL,ioos:station:DISL:DISL:1,2013-01-05T21:00:00Z,30.2513,-88.0778,10.62,1111122 
DISL,ioos:station:DISL:DISL:1,2013-01-05T21:30:00Z,30.2513,-88.0778,10.63,1111122 
DISL,ioos:station:DISL:DISL:1,2013-01-05T22:00:00Z,30.2513,-88.0778,10.62,1111122 
DISL,ioos:station:DISL:DISL:1,2013-01-05T22:30:00Z,30.2513,-88.0778,10.51,1111122 
DISL,ioos:station:DISL:DISL:1,2013-01-05T23:00:00Z,30.2513,-88.0778,10.34,1111122 
DISL,ioos:station:DISL:DISL:1,2013-01-05T23:30:00Z,30.2513,-88.0778,10.42,1111122 
DISL,ioos:station:DISL:DISL:1,2013-01-06T00:00:00Z,30.2513,-88.0778,10.4,1111122 
DISL,ioos:station:DISL:DISL:1,2013-01-06T00:30:00Z,30.2513,-88.0778,10.31,1111122 
DISL,ioos:station:DISL:DISL:1,2013-01-06T01:00:00Z,30.2513,-88.0778,10.33,1111122 
DISL,ioos:station:DISL:DISL:1,2013-01-06T01:30:00Z,30.2513,-88.0778,10.62,1111122 
DISL,ioos:station:DISL:DISL:1,2013-01-06T02:00:00Z,30.2513,-88.0778,10.61,1111122 
DISL,ioos:station:DISL:DISL:1,2013-01-06T02:30:00Z,30.2513,-88.0778,10.66,1111122 
DISL,ioos:station:DISL:DISL:1,2013-01-06T03:00:00Z,30.2513,-88.0778,10.54,1111122 
DISL,ioos:station:DISL:DISL:1,2013-01-06T03:30:00Z,30.2513,-88.0778,10.45,1111122 
DISL,ioos:station:DISL:DISL:1,2013-01-06T04:00:00Z,30.2513,-88.0778,10.47,1111122 
DISL,ioos:station:DISL:DISL:1,2013-01-06T04:30:00Z,30.2513,-88.0778,10.66,1111122 
DISL,ioos:station:DISL:DISL:1,2013-01-06T05:00:00Z,30.2513,-88.0778,10.7,1111122 
DISL,ioos:station:DISL:DISL:1,2013-01-06T05:30:00Z,30.2513,-88.0778,10.64,1111122 
DISL,ioos:station:DISL:DISL:1,2013-01-06T06:00:00Z,30.2513,-88.0778,10.62,1111122 
DISL,ioos:station:DISL:DISL:1,2013-01-06T06:30:00Z,30.2513,-88.0778,10.47,1111122 
DISL,ioos:station:DISL:DISL:1,2013-01-06T07:00:00Z,30.2513,-88.0778,10.52,1111122 
DISL,ioos:station:DISL:DISL:1,2013-01-06T07:30:00Z,30.2513,-88.0778,10.49,1111122 
DISL,ioos:station:DISL:DISL:1,2013-01-06T08:00:00Z,30.2513,-88.0778,10.54,1111122 
DISL,ioos:station:DISL:DISL:1,2013-01-06T08:30:00Z,30.2513,-88.0778,10.49,1111122 
DISL,ioos:station:DISL:DISL:1,2013-01-06T09:00:00Z,30.2513,-88.0778,10.41,1111122 
DISL,ioos:station:DISL:DISL:1,2013-01-06T09:30:00Z,30.2513,-88.0778,10.43,1111122 
DISL,ioos:station:DISL:DISL:1,2013-01-06T10:00:00Z,30.2513,-88.0778,10.1,1111122 
DISL,ioos:station:DISL:DISL:1,2013-01-06T10:30:00Z,30.2513,-88.0778,9.95,1111122 
DISL,ioos:station:DISL:DISL:1,2013-01-06T11:00:00Z,30.2513,-88.0778,9.95,1111122 
DISL,ioos:station:DISL:DISL:1,2013-01-06T11:30:00Z,30.2513,-88.0778,10.25,1111122 
DISL,ioos:station:DISL:DISL:1,2013-01-06T12:00:00Z,30.2513,-88.0778,10.36,1111122 
DISL,ioos:station:DISL:DISL:1,2013-01-06T12:30:00Z,30.2513,-88.0778,10.39,1111122 
DISL,ioos:station:DISL:DISL:1,2013-01-06T13:00:00Z,30.2513,-88.0778,10.36,1111122 
DISL,ioos:station:DISL:DISL:1,2013-01-06T13:30:00Z,30.2513,-88.0778,10.27,1111122 
DISL,ioos:station:DISL:DISL:1,2013-01-06T14:00:00Z,30.2513,-88.0778,9.84,1111122 
DISL,ioos:station:DISL:DISL:1,2013-01-06T14:30:00Z,30.2513,-88.0778,8.88,1111122 
DISL,ioos:station:DISL:DISL:1,2013-01-06T15:00:00Z,30.2513,-88.0778,9.01,1111122 
DISL,ioos:station:DISL:DISL:1,2013-01-06T15:30:00Z,30.2513,-88.0778,9.39,1111122 
DISL,ioos:station:DISL:DISL:1,2013-01-06T16:00:00Z,30.2513,-88.0778,9.16,1111122 
DISL,ioos:station:DISL:DISL:1,2013-01-06T16:30:00Z,30.2513,-88.0778,8.89,1111122 
DISL,ioos:station:DISL:DISL:1,2013-01-06T17:00:00Z,30.2513,-88.0778,8.82,1111122 
DISL,ioos:station:DISL:DISL:1,2013-01-06T17:30:00Z,30.2513,-88.0778,8.57,1111122 
DISL,ioos:station:DISL:DISL:1,2013-01-06T18:00:00Z,30.2513,-88.0778,8.63,1111122 
DISL,ioos:station:DISL:DISL:1,2013-01-06T18:30:00Z,30.2513,-88.0778,8.75,1111122 
DISL,ioos:station:DISL:DISL:1,2013-01-06T19:00:00Z,30.2513,-88.0778,8.71,1111122 
DISL,ioos:station:DISL:DISL:1,2013-01-06T19:30:00Z,30.2513,-88.0778,8.59,1111122 
DISL,ioos:station:DISL:DISL:1,2013-01-06T20:00:00Z,30.2513,-88.0778,8.74,1111122 
DISL,ioos:station:DISL:DISL:1,2013-01-06T20:30:00Z,30.2513,-88.0778,9.16,1111122 
DISL,ioos:station:DISL:DISL:1,2013-01-06T21:00:00Z,30.2513,-88.0778,9.4,1111122 
DISL,ioos:station:DISL:DISL:1,2013-01-06T21:30:00Z,30.2513,-88.0778,9.45,1111122 
DISL,ioos:station:DISL:DISL:1,2013-01-06T22:00:00Z,30.2513,-88.0778,9.7,1111122 
DISL,ioos:station:DISL:DISL:1,2013-01-06T22:30:00Z,30.2513,-88.0778,9.78,1111122 
DISL,ioos:station:DISL:DISL:1,2013-01-06T23:00:00Z,30.2513,-88.0778,9.87,1111122 
DISL,ioos:station:DISL:DISL:1,2013-01-06T23:30:00Z,30.2513,-88.0778,10.0,1111122 
DISL,ioos:station:DISL:DISL:1,2013-01-07T00:00:00Z,30.2513,-88.0778,10.11,1111122 
DISL,ioos:station:DISL:DISL:1,2013-01-07T00:30:00Z,30.2513,-88.0778,10.13,1111122 
DISL,ioos:station:DISL:DISL:1,2013-01-07T01:00:00Z,30.2513,-88.0778,10.18,1111122 
DISL,ioos:station:DISL:DISL:1,2013-01-07T01:30:00Z,30.2513,-88.0778,10.23,1111122 
DISL,ioos:station:DISL:DISL:1,2013-01-07T02:00:00Z,30.2513,-88.0778,10.25,1111122 
DISL,ioos:station:DISL:DISL:1,2013-01-07T02:30:00Z,30.2513,-88.0778,10.29,1111122 
DISL,ioos:station:DISL:DISL:1,2013-01-07T03:00:00Z,30.2513,-88.0778,10.14,1111122 
DISL,ioos:station:DISL:DISL:1,2013-01-07T03:30:00Z,30.2513,-88.0778,9.95,1111122 
DISL,ioos:station:DISL:DISL:1,2013-01-07T04:00:00Z,30.2513,-88.0778,9.82,1111122 
DISL,ioos:station:DISL:DISL:1,2013-01-07T04:30:00Z,30.2513,-88.0778,9.72,1111122 
DISL,ioos:station:DISL:DISL:1,2013-01-07T05:00:00Z,30.2513,-88.0778,9.63,1111122 
DISL,ioos:station:DISL:DISL:1,2013-01-07T05:30:00Z,30.2513,-88.0778,9.84,1111122 
DISL,ioos:station:DISL:DISL:1,2013-01-07T06:00:00Z,30.2513,-88.0778,9.53,1111122 
DISL,ioos:station:DISL:DISL:1,2013-01-07T06:30:00Z,30.2513,-88.0778,9.32,1111122 
DISL,ioos:station:DISL:DISL:1,2013-01-07T07:00:00Z,30.2513,-88.0778,9.07,1111122 